Retour au catalogue

SL-6 R/B(2)

ActifHEO
NORAD 12940·ROCKET BODY·🇷🇺 Russia

Lancé Oct 31, 1981 depuis Plesetsk Cosmodrome

Loading…

Prochains Passages (prochaines 24 heures)

TLE

FraisSource: Space-Track

Époque: Sep 14, 2026, 00:48 UTC

1 12940U 81108D   26257.03384379  .00000618  00000-0  00000-0 0  9998
2 12940  65.5323 239.1654 6752678 344.8485   2.0063  1.99089744326316

Suivez SL-6 R/B(2) en temps réel avec AllMySat

Download on the App Store